SCP
0 0 0 0 0 0 0 0 1 1 2 1 1 1 2 2 2 3 3 4 4 5 6 6 9 11 11 10 7 6 7 8 8 7 7 5 4 3 2 2 2 2 2 1
0 0 0 0 0 0 0 0 1 1 1 1 1 1 1 2 2 3 3 3 4 6 7 8 11 12 12 10 7 6 7 8 7 7 6 5 3 3 2 2 2 2 1 1
0 0 0 0 0 0 0 0 0 1 1 1 1 1 1 1 2 2 2 3 4 6 7 10 12 12 11 9 6 6 7 8 6 6 5 5 4 3 2 2 2 1 1 1
0 0 0 0 0 0 0 0 0 0 0 1 1 1 1 1 2 2 2 2 3 4 6 8 9 10 9 8 6 6 7 7 6 5 6 5 5 4 3 2 2 1 1 1
0 0 0 0 0 0 0 0 0 0 0 0 1 1 2 2 2 2 2 2 2 2 3 4 6 8 9 8 7 6 7 8 7 6 5 5 5 4 3 2 2 2 2 2
0 0 0 0 0 0 0 0 0 0 0 0 0 1 2 2 2 2 1 1 1 1 2 2 4 7 9 9 8 6 7 7 7 6 5 4 4 4 4 3 2 2 2 2
0 0 0 0 0 0 0 0 0 0 0 0 0 0 1 1 1 1 1 1 1 2 2 2 3 6 8 9 8 6 6 7 7 6 4 4 4 4 4 3 2 2 2 2
0 0 0 0 0 0 0 0 0 0 0 0 0 0 0 1 1 1 1 1 2 2 2 2 2 4 6 8 7 6 5 5 6 5 4 3 3 4 4 3 2 2 2 2
0 0 0 0 0 0 0 0 0 0 0 0 0 0 0 1 1 1 1 2 3 3 3 2 2 3 5 7 6 5 5 5 4 4 3 3 3 3 3 3 2 2 1 2
0 0 0 0 0 0 0 0 0 0 0 0 0 0 0 1 1 1 1 2 3 4 3 3 3 3 4 6 5 5 5 5 4 4 3 3 3 3 3 3 2 2 2 2
0 0 0 0 0 0 0 0 0 0 0 0 0 0 0 0 1 1 1 2 3 3 4 4 3 3 4 6 6 5 5 5 4 4 3 3 2 2 3 3 3 2 2 2
0 0 0 0 0 0 0 0 0 0 0 0 0 0 0 1 1 1 1 2 2 3 4 4 4 4 6 8 7 5 4 4 5 4 4 3 3 2 2 2 2 2 2 2
0 0 0 0 0 0 0 0 0 0 0 0 0 0 1 1 1 1 1 1 3 5 5 4 4 5 7 8 6 4 4 4 5 5 4 3 2 2 2 2 2 2 2 2
0 0 0 0 0 1 1 1 1 0 0 0 0 1 1 1 1 0 0 1 3 5 5 4 4 6 7 7 5 3 3 4 5 4 4 2 2 2 2 2 2 2 2 2
0 0 0 0 1 1 1 1 1 1 1 0 1 1 1 1 1 1 1 1 2 3 4 4 4 6 6 6 4 3 3 3 3 3 2 2 2 2 1 1 2 2 2 2
1 1 1 1 1 1 1 2 2 1 1 1 1 1 1 1 1 1 1 1 1 2 2 3 4 5 5 5 4 3 3 3 3 3 2 2 2 2 2 2 2 2 2 1
1 1 1 1 1 1 1 1 1 1 1 1 1 1 2 2 2 2 1 1 1 1 2 2 3 4 4 5 4 3 4 4 4 4 3 2 2 2 2 2 2 2 2 2
1 1 1 1 1 1 1 1 1 1 1 1 0 1 2 2 2 2 2 2 2 2 1 2 2 3 4 4 3 4 5 6 5 4 4 4 3 2 2 2 2 2 2 2
1 1 1 1 1 1 1 1 1 1 1 1 0 1 1 2 2 2 3 4 4 3 3 4 4 4 4 4 4 5 6 6 6 5 4 4 3 3 2 2 2 2 2 2
0 0 0 1 1 0 1 1 1 1 1 1 0 0 0 1 2 3 5 6 5 4 6 10 11 9 6 5 6 7 7 6 6 5 5 4 4 3 3 3 3 3 3 2
0 0 0 0 0 0 1 1 1 1 0 1 1 1 1 1 2 4 6 6 5 5 8 14 16 13 10 8 7 8 7 6 5 5 4 4 4 3 3 3 3 3 3 3
0 0 0 0 0 0 1 1 1 1 0 1 1 1 2 3 3 4 6 7 6 5 8 13 15 14 11 9 8 7 6 5 5 5 4 3 3 3 3 2 3 4 4 4
0 0 0 0 0 0 1 1 1 1 1 1 1 1 2 2 3 4 5 7 6 6 8 10 11 12 10 8 7 6 5 5 5 4 4 3 3 2 2 2 2 3 4 5
0 0 0 0 0 0 1 1 1 1 1 1 1 2 1 2 2 2 4 5 5 6 7 8 8 9 8 7 6 5 4 5 5 4 3 3 2 2 2 2 2 3 4 5
0 0 0 0 0 0 1 1 1 1 1 1 2 2 2 2 2 2 2 3 4 4 5 5 6 6 6 5 4 4 4 4 4 4 3 3 3 2 2 1 1 2 3 3
0 0 0 0 0 1 1 1 1 1 1 1 2 3 3 3 3 2 2 3 3 4 4 4 4 5 6 5 4 4 4 4 3 3 4 3 3 2 2 1 1 1 1 2
Wind_Speed
2 2 5 9 9 7 5 5 6 7 6 1 2 3 3 2 5 6 7 7 7 7 6 8 9 10 9 8 8 8 8 7 6 4 4 3 3 2 2 2 4 4 4 4
2 6 11 8 6 6 7 6 7 6 4 2 2 2 2 2 6 8 8 7 7 7 6 7 8 8 9 9 8 7 8 8 6 5 4 3 3 2 2 2 2 3 4 4
8 9 6 6 7 6 7 7 7 6 4 1 2 3 3 1 3 5 6 6 7 9 10 9 9 8 9 9 9 8 7 7 6 5 3 3 2 2 1 2 2 2 4 4
7 8 6 6 8 6 7 9 6 4 1 2 1 1 4 1 2 4 4 4 4 7 8 8 8 8 9 8 7 7 7 7 6 6 6 6 4 3 3 3 3 2 3 4
6 4 4 6 10 7 7 6 3 2 2 1 3 3 4 2 1 2 5 6 5 6 8 7 8 9 7 6 6 6 6 6 5 6 6 6 4 3 2 3 4 3 3 4
8 6 5 8 8 5 4 1 3 4 4 1 2 3 3 2 3 2 2 5 6 7 7 7 6 5 5 5 5 5 6 5 5 6 6 6 6 5 4 4 4 3 2 3
6 8 6 4 3 5 0 3 3 4 3 3 2 2 4 4 3 4 3 4 5 6 6 6 7 6 6 6 7 6 6 5 5 6 6 6 6 6 7 5 5 4 3 3
3 7 4 2 4 3 2 7 7 4 4 3 2 2 4 3 1 2 3 3 4 5 6 6 7 7 7 7 6 6 7 5 5 6 5 5 5 5 4 5 5 5 4 4
4 6 4 2 2 4 1 2 6 6 2 1 2 1 3 2 2 3 3 4 4 5 5 4 4 6 6 7 6 7 7 5 5 5 4 4 5 5 5 5 4 4 4 4
4 3 5 4 1 1 5 5 5 5 3 1 2 2 3 2 1 2 3 3 3 3 4 4 3 4 4 4 4 5 5 5 5 4 4 4 4 5 5 5 5 5 4 4
3 2 5 3 1 2 1 2 4 4 5 5 2 4 3 6 6 5 4 3 3 3 3 3 3 3 4 3 3 3 4 4 4 5 5 4 4 4 4 4 5 5 4 5
1 4 2 4 3 2 3 3 5 5 2 3 4 4 1 4 6 6 5 3 4 4 3 3 3 3 4 3 3 3 3 3 4 4 4 4 4 3 4 4 4 4 4 4
2 4 1 5 6 4 2 0 3 5 5 4 5 4 1 3 3 4 5 4 3 4 3 2 2 2 3 3 3 3 3 3 3 3 3 3 3 3 4 4 4 4 4 4
4 3 6 7 6 2 0 1 1 5 3 3 5 4 1 2 4 3 3 3 4 4 3 2 2 2 2 2 2 3 2 2 3 3 3 3 4 5 5 4 4 4 4 4
4 2 2 3 2 2 2 1 1 2 5 5 5 5 4 4 5 4 3 3 4 4 3 2 2 1 2 1 1 2 2 2 2 2 3 4 4 4 4 4 4 4 4 5
3 2 1 0 2 3 2 2 1 1 3 5 5 2 2 3 5 4 3 3 4 3 2 1 1 1 1 2 2 1 1 2 2 3 4 4 3 3 4 4 4 4 4 4
1 2 2 2 2 3 2 2 1 2 2 4 4 4 4 4 5 4 2 3 3 2 2 0 1 1 2 2 3 2 2 2 2 2 3 3 3 3 4 4 4 4 4 4
3 3 3 1 1 2 4 1 3 5 3 2 3 4 5 5 4 3 3 3 2 1 2 2 2 1 2 1 1 1 1 1 1 1 2 2 2 3 3 3 4 4 4 4
5 6 4 3 2 2 1 2 1 1 2 2 4 4 4 5 5 3 2 1 2 2 2 3 2 1 1 0 1 1 1 1 0 1 2 2 2 3 3 3 3 4 4 4
4 4 4 3 3 4 4 4 3 4 1 2 2 4 3 4 2 2 1 1 1 1 1 1 1 1 1 1 1 2 1 0 1 2 2 2 2 3 4 4 3 3 3 4
4 3 2 2 2 2 4 6 3 3 4 2 0 2 2 2 4 3 1 1 1 1 1 1 1 1 1 1 1 1 1 2 2 2 2 2 2 3 3 3 3 3 3 3
1 1 1 1 1 3 6 4 2 3 1 1 2 2 3 2 1 1 1 0 1 1 0 0 1 1 1 0 1 1 1 2 1 1 1 2 2 3 2 3 3 3 4 4
2 2 2 2 2 2 3 1 0 2 2 1 1 2 4 3 1 1 1 0 1 1 1 0 0 1 2 1 0 1 2 1 1 1 1 2 2 2 2 3 3 3 3 3
2 1 3 2 0 1 2 3 3 2 1 1 1 2 3 3 2 1 1 1 1 1 1 0 0 1 2 2 1 1 2 1 0 1 2 2 1 2 2 1 2 3 3 3
2 1 2 1 1 1 3 3 3 3 3 2 2 2 3 2 1 1 1 1 1 1 1 0 0 0 2 2 2 2 1 0 0 1 1 2 1 1 1 1 2 3 4 5
2 1 2 3 3 2 3 3 2 2 2 1 1 1 1 1 2 1 1 1 1 1 0 0 0 1 2 2 2 2 2 1 0 1 1 1 1 1 1 1 2 3 3 5
Wind_Direction
243 125 225 227 208 208 227 254 266 270 267 215 211 228 233 172 158 161 162 163 158 160 159 152 155 152 148 151 152 155 156 159 152 149 147 145 158 164 157 164 162 158 155 150
353 250 236 234 233 230 240 249 263 279 263 182 187 230 224 143 167 165 161 154 154 147 143 154 154 152 156 161 160 159 160 160 161 164 161 154 152 165 165 162 162 161 157 160
211 242 235 234 242 238 252 228 231 247 292 338 90 353 337 20 104 132 143 146 148 158 162 162 158 159 160 167 169 166 165 163 162 156 138 120 103 98 121 147 173 178 166 170
238 247 245 246 248 224 249 241 226 228 178 295 109 203 291 297 85 122 139 137 149 160 160 161 159 163 170 173 167 159 162 163 162 156 154 153 157 168 185 178 180 181 174 176
247 229 225 243 245 223 230 242 238 215 147 43 18 118 285 14 87 174 165 164 157 156 156 162 167 170 170 166 164 158 157 163 163 162 163 164 164 172 163 159 167 183 192 189
249 250 222 235 254 227 208 340 8 42 70 44 256 144 260 247 210 213 175 167 165 162 160 166 163 155 152 155 158 157 160 167 168 168 168 169 170 167 162 171 179 188 195 199
292 284 262 248 277 296 101 95 33 0 15 252 241 142 235 252 204 171 178 180 167 158 151 156 160 156 160 161 165 166 168 176 178 173 178 180 178 175 179 182 185 185 189 199
248 283 268 240 204 227 227 142 155 190 209 253 304 203 248 269 209 143 126 143 154 148 153 160 167 169 169 166 164 166 174 182 183 183 190 190 181 181 190 188 184 190 196 201
199 253 278 265 222 167 184 184 171 142 144 117 266 280 321 353 53 72 86 99 129 144 139 143 152 158 167 169 176 180 175 178 187 190 191 192 187 186 190 189 184 191 197 197
173 258 286 276 5 351 160 151 85 104 141 204 235 215 217 213 169 107 112 114 121 137 131 132 143 143 158 171 176 176 175 185 185 183 194 195 194 197 192 184 188 196 197 191
140 179 302 350 106 234 35 79 107 119 146 152 200 257 211 175 160 147 138 120 125 124 142 146 147 151 155 154 158 168 179 183 184 186 193 194 199 197 190 190 193 193 192 187
158 134 259 266 252 175 150 166 141 143 186 143 154 253 274 155 154 140 126 115 119 117 119 128 138 138 135 156 172 179 192 194 197 194 189 195 194 187 189 196 195 186 188 190
128 119 88 331 338 5 63 126 145 133 127 150 160 226 50 103 108 116 115 104 95 100 103 98 106 132 151 163 175 186 201 208 204 185 175 185 191 186 196 199 192 186 182 182
120 129 166 197 225 223 255 327 120 119 137 179 188 185 198 126 125 111 99 105 108 105 113 117 115 124 135 146 166 188 210 210 194 182 180 192 205 201 200 195 188 186 179 179
85 139 198 203 195 110 97 67 85 137 174 172 185 174 198 172 151 137 117 109 102 92 84 102 124 129 122 131 165 197 202 201 197 191 199 214 215 207 197 192 189 181 181 186
47 122 101 355 108 93 51 13 62 93 117 135 129 162 179 127 112 98 95 103 104 99 87 77 116 121 136 170 194 218 214 203 192 214 219 222 214 208 204 202 192 181 182 182
45 104 97 246 259 33 349 332 85 95 78 147 169 193 145 118 113 128 136 115 113 120 137 157 234 207 206 198 187 197 211 199 193 213 227 216 202 209 211 204 188 187 190 186
154 120 132 181 49 205 237 278 95 101 65 72 125 144 145 142 149 129 117 128 143 163 177 203 228 238 246 215 195 193 174 170 203 232 226 215 201 210 215 202 195 196 192 191
164 148 137 138 170 210 291 349 29 114 53 38 116 126 119 105 82 45 37 97 173 201 192 197 202 207 228 218 187 147 145 186 251 258 236 236 215 211 209 209 214 207 193 195
63 104 131 145 160 207 251 303 307 109 133 333 95 138 139 103 104 249 300 26 12 296 195 176 167 112 88 307 153 141 180 209 251 256 245 244 231 217 217 217 218 209 195 200
21 27 87 139 171 238 296 314 4 133 226 284 90 147 137 156 187 211 237 15 302 280 230 196 155 139 202 211 128 141 177 250 252 252 250 244 233 227 220 214 211 207 197 196
87 78 51 100 159 252 328 15 80 207 217 90 81 102 110 115 138 139 119 53 315 333 291 144 95 328 294 222 157 174 242 266 269 244 247 248 242 241 239 213 216 209 193 192
71 157 156 155 199 268 344 32 157 141 125 136 140 160 131 124 149 150 136 121 303 297 279 299 109 337 324 326 159 202 258 271 313 306 273 271 264 256 234 205 206 208 198 195
346 39 98 86 310 333 8 19 15 41 70 297 158 144 133 150 182 189 180 204 274 288 272 259 79 10 329 316 308 248 260 252 263 296 300 284 283 293 287 226 202 201 204 205
305 3 69 124 255 358 6 355 351 9 21 38 48 102 134 150 182 191 183 188 223 256 273 234 124 290 298 309 293 278 279 285 318 293 296 313 310 292 301 291 250 228 225 212
290 195 176 223 229 189 255 285 343 6 349 339 11 23 47 156 180 159 198 210 203 290 316 11 348 305 308 316 312 291 263 239 233 299 314 312 299 290 289 297 315 304 264 251